Forrest,

5:44 PM AWST on September 20, 2017 (GMT +0800)
Forrest

Weather History for YFRT - January, 2014

Change the Weather History Date:

Thursday, January 2, 2014

  Actual Average Record
Temperature  
Mean Temperature 66 °F -  
Max Temperature 74 °F - - ()
Min Temperature 57 °F - - ()
Growing Degree Days 16 (Base 50)    
Moisture  
Dew Point 61 °F    
Average Humidity 80    
Maximum Humidity 100    
Minimum Humidity 43    
Precipitation  
Precipitation 0.00 in - - ()
Sea Level Pressure  
Sea Level Pressure 29.85 in    
Wind  
Wind Speed 18 mph ()    
Max Wind Speed 31 mph    
Max Gust Speed 41 mph    
T = Trace of Precipitation, MM = Missing Value Source: Averaged Metar Reports

Daily Weather History Graph

Daily Weather History Graph

Search for Another Location

Airport or City:

Trip Planner

Search our weather history database for the weather conditions in past years. The results will help you decide how hot, cold, wet, or windy it might be!

Date:

Astronomy

Jan. 02, 2014 Rise Set
Actual Time 4:28 AM AWST 6:34 PM AWST
Civil Twilight 4:00 AM AWST 7:01 PM AWST
Nautical Twilight 3:27 AM AWST 7:35 PM AWST
Astronomical Twilight 2:50 AM AWST 8:11 PM AWST
Moon 5:11 AM AWST (1/2) 7:07 PM AWST (1/2)
Length of Visible Light 15h 01m
Length of Day
14h 05m
New Moon, 1% of the Moon is Illuminated
Jan 2
New Moon
Jan 8
First Quarter
Jan 16
Full
Jan 24
Last Quarter
Jan 31
New

Hourly Weather History & Observations

Time (AWST) Temp. Dew Point Humidity Pressure Visibility Wind Dir Wind Speed Gust Speed Precip Events Conditions
12:00 AM 70 °F - % 29.49 in - North 19.6 mph - -  
12:00 AM - - N/A% 29.50 in - North 19.6 mph - N/A   Unknown
12:30 AM - - N/A% 29.47 in - ENE 8.1 mph - N/A   Unknown
1:00 AM - - N/A% 29.47 in - South 13.8 mph - N/A   Unknown
1:20 AM - - N/A% 29.50 in - SSW 21.9 mph - N/A   Unknown
1:25 AM 68.0 °F 68.0 °F 100% 29.53 in - SSW 24.2 mph 35.7 mph N/A   Unknown
1:30 AM - - N/A% 29.53 in - SSW 28.8 mph - N/A   Unknown
2:00 AM 65 °F 65 °F 100% 29.57 in - SSW 29.9 mph - -  
2:00 AM - - N/A% 29.56 in - SSW 29.9 mph - N/A   Unknown
2:30 AM 64.4 °F 64.4 °F 100% 29.62 in - SSW 31.1 mph - N/A   Unknown
2:42 AM 64.4 °F 64.4 °F 100% 29.65 in - SSW 28.8 mph 40.3 mph N/A   Unknown
3:00 AM 63 °F - % 29.66 in - SSW 28.8 mph - -  
3:00 AM - - N/A% 29.68 in - SSW 28.8 mph - N/A   Unknown
3:22 AM - - N/A% 29.71 in - SSW 28.8 mph 41.4 mph N/A   Unknown
3:30 AM - - N/A% 29.71 in - SSW 29.9 mph 41.4 mph N/A   Unknown
4:00 AM 62.6 °F 62.6 °F 100% 29.74 in - SSW 26.5 mph - N/A   Unknown
4:30 AM 62.6 °F 62.6 °F 100% 29.77 in - SSW 25.3 mph - N/A   Unknown
5:00 AM 62 °F 63 °F 100% 29.79 in - SSW 25.3 mph - -  
5:00 AM 62.6 °F 62.6 °F 100% 29.80 in - SSW 25.3 mph - N/A   Unknown
5:30 AM 62.6 °F 62.6 °F 100% 29.83 in - SSW 21.9 mph - N/A   Unknown
6:00 AM 63 °F - % 29.83 in - SSW 23.0 mph - -  
6:00 AM - - N/A% 29.83 in - SSW 23.0 mph - N/A   Unknown
6:30 AM 64.4 °F 64.4 °F 100% 29.86 in - SSW 20.7 mph - N/A   Unknown
7:00 AM 66.2 °F 66.2 °F 100% 29.89 in - SSW 20.7 mph - N/A   Unknown
7:30 AM 66.2 °F 64.4 °F 94% 29.89 in - SSW 21.9 mph - N/A   Unknown
8:00 AM 66 °F 66 °F 99% 29.89 in - SSW 20.7 mph - -  
8:00 AM 66.2 °F 66.2 °F 100% 29.89 in - SSW 20.7 mph - N/A   Unknown
8:30 AM 68.0 °F 66.2 °F 94% 29.92 in - SSW 23.0 mph - N/A   Unknown
9:00 AM 68 °F 67 °F 97% 29.91 in - SSW 19.6 mph - -  
9:00 AM 68.0 °F 68.0 °F 100% 29.92 in - SSW 19.6 mph - N/A   Unknown
9:30 AM 69.8 °F 66.2 °F 88% 29.92 in - SSW 19.6 mph - N/A   Unknown
10:00 AM 69.8 °F 64.4 °F 83% 29.92 in - SSW 21.9 mph - N/A   Unknown
10:30 AM 69.8 °F 62.6 °F 78% 29.95 in - SSW 19.6 mph - N/A   Unknown
11:00 AM 71 °F 62 °F 67% 29.93 in - SSW 18.4 mph - -  
11:00 AM 71.6 °F 62.6 °F 73% 29.95 in - SSW 18.4 mph - N/A   Unknown
11:30 AM 71.6 °F 62.6 °F 73% 29.95 in - SSW 16.1 mph - N/A   Unknown
12:00 PM 72 °F 62 °F 63% 29.93 in - South 15.0 mph - -  
12:00 PM 71.6 °F 62.6 °F 73% 29.95 in - South 15.0 mph - N/A   Unknown
12:30 PM 73.4 °F 60.8 °F 65% 29.95 in - SSW 13.8 mph - N/A   Unknown
1:00 PM 73.4 °F 59.0 °F 61% 29.92 in - SSW 16.1 mph - N/A   Unknown
1:30 PM 73.4 °F 59.0 °F 61% 29.92 in - SSW 16.1 mph - N/A   Unknown
2:00 PM 74 °F 59 °F 49% 29.91 in - SSW 15.0 mph - -  
2:00 PM 73.4 °F 59.0 °F 61% 29.92 in - SSW 15.0 mph - N/A   Unknown
2:30 PM 73.4 °F 59.0 °F 61% 29.92 in - SSW 17.3 mph - N/A   Unknown
3:00 PM 74 °F 60 °F 52% 29.91 in - SSW 15.0 mph - -  
3:00 PM 73.4 °F 60.8 °F 65% 29.92 in - SSW 15.0 mph - N/A   Unknown
3:30 PM 73.4 °F 59.0 °F 61% 29.92 in - SSW 15.0 mph - N/A   Unknown
4:00 PM 73.4 °F 59.0 °F 61% 29.92 in - SSW 12.7 mph - N/A   Unknown
4:30 PM 75.2 °F 57.2 °F 53% 29.92 in - SSW 15.0 mph - N/A   Unknown
5:00 PM 74 °F 56 °F 43% 29.92 in - SSW 15.0 mph - -  
5:00 PM 73.4 °F 55.4 °F 53% 29.95 in - SSW 15.0 mph - N/A   Unknown
5:30 PM 73.4 °F 55.4 °F 53% 29.95 in - SW 13.8 mph - N/A   Unknown
6:00 PM 73 °F 56 °F 44% 29.95 in - SSW 11.5 mph - -  
6:00 PM 73.4 °F 55.4 °F 53% 29.95 in - SSW 11.5 mph - N/A   Unknown
6:30 PM 69.8 °F 59.0 °F 68% 29.98 in - South 13.8 mph - N/A   Unknown
7:00 PM 68.0 °F 59.0 °F 73% 29.98 in - South 9.2 mph - N/A   Unknown
7:30 PM 66.2 °F 57.2 °F 73% 30.01 in - South 12.7 mph - N/A   Unknown
8:00 PM 64 °F 58 °F 73% 30.00 in - South 11.5 mph - -  
8:00 PM 64.4 °F 57.2 °F 77% 30.01 in - South 11.5 mph - N/A   Unknown
8:30 PM 62.6 °F 59.0 °F 88% 30.04 in - South 9.2 mph - N/A   Unknown
9:00 PM 62 °F 59 °F 87% 30.02 in - South 8.1 mph - -  
9:00 PM 60.8 °F 59.0 °F 94% 30.04 in - South 8.1 mph - N/A   Unknown
9:30 PM 60.8 °F 59.0 °F 94% 30.04 in - South 6.9 mph - N/A   Unknown
10:00 PM 59.0 °F 59.0 °F 100% 30.04 in - South 4.6 mph - N/A   Unknown
10:30 PM 59.0 °F 59.0 °F 100% 30.04 in - SSE 3.5 mph - N/A   Unknown
11:00 PM 58 °F 58 °F 98% 30.01 in - SE 1.2 mph - -  
11:00 PM 57.2 °F 57.2 °F 100% 30.01 in - SE 1.2 mph - N/A   Unknown
11:30 PM 57.2 °F 57.2 °F 100% 30.01 in - North 5.8 mph - N/A   Unknown